Location: Recife
(8.0585°S, 34.8848°W)
Time: 04:39:49
(UTC-03:00)

Courier 1B - Pass Details

Date: 14 April 2026
Orbit: 962 x 1209 km, 28.3° (Epoch: 14 May)

Event Time Altitude Azimuth Distance (km) Brightness Sun altitude
Rises 06:12:54 0° 291° (WNW) 4,025 10.2 11.6°
Reaches altitude 10° 06:15:43 10° 288° (WNW) 3,090 9.6 12.3°
Maximum altitude 06:23:22 64° 208° (SSW) 1,319 8.3 14.1°
Drops below altitude 10° 06:31:11 10° 127° (SE) 3,143 10.9 16.0°
Sets 06:34:04 0° 124° (ESE) 4,098 11.4 16.7°
